Location: Wiler
(46.4041°N, 7.7840°E)
Time: 17:28:35
(UTC+00:00)

CZ-4C R/B - Pass Details

Date: 09 April 2020
Orbit: 637 x 1365 km, 63.4° (Epoch: 28 May)

Event Time Altitude Azimuth Distance (km) Brightness Sun altitude
Rises 20:50:02 0° 321° (NW) 3,743 6.9 -25.0°
Reaches altitude 10° 20:52:33 10° 326° (NW) 2,892 6.0 -25.3°
Maximum altitude 20:59:26 55° 44° (NE) 1,415 3.2 -26.1°
Enters shadow 21:01:47 42° 93° (E) 1,704 3.4 -26.3°
